This demonstration page uses our WeatherBlox Daily Observations layout. Learn more.

Left ArrowRight Arrow

39.01783, -85.05884

Hourly Observations for December 31, 2020

Temp ( °F °C ) Dew Point ( °F °C ) Humidity (%) Winds ( mph kmh ) Pressure ( in mb ) Visibility ( mi km ) Precip ( " mm )
12:00 am 00:00 Cloudy with Rain 34 1.1 31 -0.6 89 89 W 9 15 30.12 1020 4 6 0.02 0.51
12:45 am 00:45 Cloudy with Light Freezing Rain 33 0.6 30 -1.1 89 89 WNW 9 15 30.13 1020 3 5 0.10 2.54
12:52 am 00:52 Cloudy with Freezing Rain 33 0.6 30 -1.1 89 89 WNW 10 17 30.10 1019 3 5 0.13 3.30
1:02 am 01:02 Cloudy with Light Freezing Rain 33 0.6 30 -1.1 89 89 NW 10 17 30.14 1021 3 5 0.03 0.76
1:52 am 01:52 Cloudy with Light Freezing Rain 33 0.6 30 -1.1 89 89 WNW 8 13 30.11 1020 6 10 0.08 2.03
2:52 am 02:52 Cloudy with Light Freezing Rain 32 undefined 30 -1.1 92 92 WNW 8 13 30.13 1020 6 10 0.05 1.27
2:58 am 02:58 Cloudy with Light Freezing Rain 32 undefined 30 -1.1 92 92 WNW 7 11 30.17 1022 5 8 0.01 0.25
3:45 am 03:45 Cloudy with Light Freezing Rain 32 undefined 30 -1.1 92 92 WNW 7 11 30.17 1022 6 10 0.04 1.02
3:52 am 03:52 Cloudy with Light Freezing Rain 32 undefined 30 -1.1 92 92 W 6 9 30.13 1020 6 10 0.04 1.02
4:02 am 04:02 Cloudy 32 undefined 30 -1.1 92 92 WNW 6 9 30.17 1022 7 11 0.00 0.00
4:33 am 04:33 Cloudy with Mist and Fog 32 undefined 29 -1.7 88 88 WNW 7 11 30.18 1022 5 8 0.00 0.00
4:52 am 04:52 Cloudy with Mist and Fog 32 undefined 29 -1.7 88 88 NW 8 13 30.14 1021 6 10 0.00 0.00
5:45 am 05:45 Cloudy 32 undefined 29 -1.7 88 88 NNW 7 11 30.20 1023 8 13 N/A
5:52 am 05:52 Cloudy with Mist and Fog 32 undefined 29 -1.7 88 88 N 6 9 30.16 1021 6 10 N/A
6:52 am 06:52 Cloudy with Mist and Fog 31 -0.6 28 -2.2 89 89 NNW 15 24 30.18 1022 5 8 N/A
7:52 am 07:52 Cloudy with Mist and Fog 30 -1.1 26 -3.3 85 85 N 9 15 30.22 1024 5 8 N/A
7:59 am 07:59 Cloudy with Mist and Fog 30 -1.1 26 -3.3 85 85 N 10 17 30.26 1025 5 8 N/A
8:52 am 08:52 Cloudy with Mist and Fog 29 -1.7 25 -3.9 85 85 N 12 19 30.24 1024 3 5 N/A
9:52 am 09:52 Cloudy with Mist and Fog 28 -2.2 24 -4.4 85 85 N 9 15 30.28 1025 5 8 N/A
10:02 am 10:02 Cloudy with Mist and Fog 28 -2.2 24 -4.4 85 85 N 10 17 30.31 1027 5 8 N/A
10:52 am 10:52 Cloudy with Haze 29 -1.7 24 -4.4 82 82 NNE 10 17 30.29 1026 5 8 N/A
11:52 am 11:52 Cloudy with Haze 30 -1.1 24 -4.4 79 79 N 9 15 30.29 1026 5 8 N/A
12:31 pm 12:31 Mostly Cloudy with Haze 30 -1.1 24 -4.4 79 79 N 10 17 30.32 1027 5 8 N/A
12:52 pm 12:52 Cloudy with Haze 30 -1.1 24 -4.4 79 79 N 8 13 30.28 1025 5 8 N/A
1:52 pm 13:52 Cloudy with Haze 31 -0.6 24 -4.4 76 76 N 9 15 30.27 1025 5 8 N/A
2:26 pm 14:26 Cloudy with Haze 32 undefined 25 -3.9 75 75 NNE 8 13 30.29 1026 5 8 N/A
2:52 pm 14:52 Cloudy with Haze 32 undefined 25 -3.9 75 75 NNE 8 13 30.27 1025 5 8 N/A
3:15 pm 15:15 Cloudy with Haze 32 undefined 25 -3.9 75 75 N 7 11 30.30 1026 6 10 N/A
3:52 pm 15:52 Mostly Cloudy with Haze 33 0.6 26 -3.3 75 75 ENE 9 15 30.27 1025 6 10 N/A
4:52 pm 16:52 Cloudy with Haze 32 undefined 25 -3.9 75 75 ENE 8 13 30.27 1025 6 10 N/A
5:24 pm 17:24 Mostly Cloudy with Haze 32 undefined 25 -3.9 75 75 ENE 7 11 30.32 1027 5 8 N/A
5:52 pm 17:52 Cloudy 32 undefined 26 -3.3 79 79 E 8 13 30.30 1026 7 11 N/A
6:30 pm 18:30 Cloudy 31 -0.6 25 -3.9 79 79 E 9 15 30.34 1027 7 11 N/A
6:52 pm 18:52 Cloudy 31 -0.6 26 -3.3 82 82 E 12 19 30.31 1026 7 11 N/A
7:52 pm 19:52 Cloudy 31 -0.6 26 -3.3 82 82 ENE 12 19 30.31 1027 7 11 N/A
8:52 pm 20:52 Cloudy 31 -0.6 25 -3.9 79 79 E 14 22 30.30 1026 8 13 N/A
9:52 pm 21:52 Cloudy 31 -0.6 25 -3.9 79 79 E 9 15 30.31 1026 7 11 N/A
10:52 pm 22:52 Cloudy with Haze 31 -0.6 26 -3.3 82 82 E 10 17 30.30 1026 6 10 N/A
11:52 pm 23:52 Cloudy 31 -0.6 26 -3.3 82 82 E 12 19 30.31 1026 7 11 N/A

Powered by AerisWeather